パンスターズ彗星

P/2021 R1 ( PanSTARRS )

English version
Home page
Updated on September 9, 2021

---------------------------------------------------------------------

・ プロフィール

発見日 2021年9月4日
発見光度 20.6等
発見者 Pan-STARRS 1 telescope (Haleakala)

・ 写真集

・ 軌道要素

Epoch 2021 Dec. 12.0 TT = JDT 2459560.5                                         
T 2021 Dec. 17.56776 TT                                 Rudenko                 
q   4.8856327            (2000.0)            P               Q                  
n   0.04031293     Peri.  220.31251     +0.99610251     -0.06700943             
a   8.4237699      Node   143.40864     +0.08209456     +0.94212540             
e   0.4200183      Incl.    5.52129     -0.03225342     +0.32849577             
P  24.4                                                                         
From 70 observations 2020 Aug. 10-2021 Sept. 5, mean residual 0".3.             

・ 光度変化

        m1 = 11.0 + 5 logΔ + 10.0 log r

---------------------------------------------------------------------

軌道要素はM.P.E.C. 2021-R150に掲載されたものです。
光度グラフはComet for Windowsで作成したものです。

---------------------------------------------------------------------

Copyright(C) Seiichi Yoshida (comet@aerith.net). All rights reserved.